Location: ??????
(51.1667°N, 71.4500°E)
Time: 09:40:51
(UTC+00:00)

Daily predictions for brighter satellites

Satellite Brightness Start Highest point End
(mag) Time Altitude Azimuth Time Altitude Azimuth Time Altitude Azimuth
ATLAS 2AS CENTAUR R/B 4.1 12:30:15 10° WNW 12:37:13 33° N 12:43:53 10° ENE
Lacrosse 5 1.9 12:33:47 10° SW 12:38:51 82° SSE 12:43:57 10° ENE
CZ-4 R/B 2.5 12:37:36 10° ESE 12:40:42 23° ENE 12:43:47 10° N
NOSS 2-1 (D) 2.9 12:38:41 10° SW 12:41:58 70° SE 12:45:35 10° NE
SL-27 R/B 4.2 12:39:15 10° NW 12:42:36 38° WSW 12:45:53 10° S
CZ-4C R/B 4.2 12:40:30 10° N 12:43:33 41° WNW 12:46:38 10° SW
Cosmos 1300 4.3 12:41:17 10° ESE 12:43:35 16° E 12:45:54 10° NE
USA 215 3.6 12:37:42 10° E 12:44:05 57° N 12:50:28 10° WNW
Cosmos 304 Rocket 3.9 12:39:41 10° S 12:44:22 58° ESE 12:49:06 10° NNE
Cosmos 1420 Rocket 4.0 12:40:18 10° SSW 12:45:33 71° ESE 12:50:48 10° NNE
Cosmos 1328 3.9 12:43:47 10° N 12:47:40 52° ENE 12:51:32 10° SSE
USA 276 4.3 12:45:10 10° W 12:47:50 24° SSW 12:50:30 10° SSE
GEOS 3 Rocket 3.8 12:43:21 10° ESE 12:48:37 63° NE 12:53:58 10° NW
Cosmos 2228 3.9 12:46:06 10° SE 12:49:38 26° E 12:53:11 10° NNE
USA 305 3.2 12:45:42 10° W 12:49:59 63° N 12:54:14 10° ENE
YAOGAN 6 4.0 12:47:28 10° S 12:50:57 44° W 12:54:31 10° NNW
Cosmos 1626 Rocket 4.1 12:46:45 10° NNW 12:51:11 67° W 12:55:34 10° S
Cosmos 1602 Rocket 3.7 12:47:13 10° NNW 12:51:43 86° W 12:56:12 10° S
CZ-4B R/B 1.3 12:48:36 10° NNE 12:51:55 60° ESE 12:55:06 10° S
Cosmos 2219 4.1 12:49:08 10° NNW 12:54:14 31° NE 12:59:20 10° ESE
USA 306 3.2 12:51:50 10° W 12:56:06 62° N 13:00:06 12° ENE
ERBS 2.2 12:52:59 10° WSW 12:56:19 89° N 12:59:34 11° ENE
Cosmos 1953 Rocket 4.1 12:55:16 10° N 12:59:19 35° ENE 13:03:22 10° SE
Cosmos 1741 Rocket 4.0 12:54:09 10° NNW 12:59:27 84° ENE 13:04:41 10° SSE
Cosmos 2279 Rocket 4.5 12:56:50 10° SSW 13:03:03 67° WNW 13:09:18 10° N
SeaSat 1 3.0 13:02:02 10° ESE 13:06:36 39° NE 13:11:12 10° NNW
Cosmos 1689 Rocket 2.6 13:04:26 10° NNE 13:07:09 34° E 13:09:50 10° SSE
Cosmos 1400 Rocket 4.3 13:05:51 10° SE 13:08:36 18° E 13:11:21 10° NE
Cosmos 371 Rocket 4.2 13:04:35 10° SW 13:09:17 50° WNW 13:14:02 10° NNE
CZ-4C R/B 3.8 13:05:32 10° WNW 13:10:37 28° N 13:16:34 10° NE
IRS-1C Rocket 4.1 13:10:01 10° SSE 13:15:18 86° ENE 13:20:37 10° NNW
Cosmos 1850 Rocket 4.4 13:12:43 10° NNW 13:18:00 69° WSW 13:23:16 10° SSE
Cosmos 1340 3.6 13:15:31 10° N 13:18:48 27° ENE 13:21:06 15° ESE
Okean O Rocket 3.6 13:15:46 10° SSW 13:19:43 33° W 13:23:41 10° NNW
H-2A R/B 2.6 13:16:38 10° SE 13:21:39 41° ENE 13:26:43 10° N
COSMO-SKYMED 1 2.5 13:17:27 10° NNE 13:21:48 62° ESE 13:26:05 10° S
Meteor 1-16 Rocket 4.4 13:17:17 10° SSW 13:22:58 75° WNW 13:28:31 10° N
Cosmos 1408 4.4 13:21:42 10° NNE 13:23:09 15° NE 13:23:09 15° NE
CZ-4 R/B 4.4 13:21:07 10° SSE 13:25:17 84° ENE 13:29:29 10° NNW
ERS-2 3.2 13:22:35 10° N 13:26:07 48° WNW 13:29:38 10° SW
COSMOS 2487 3.1 13:22:49 10° NNW 13:26:13 56° WSW 13:29:35 10° S
Cosmos 1452 Rocket 3.6 13:22:35 10° SSW 13:27:51 85° WNW 13:33:11 10° NNE
Cosmos 1943 Rocket 3.8 13:23:07 10° WSW 13:28:02 31° NW 13:32:57 10° NNE
Cosmos 1953 3.9 13:24:31 10° SW 13:28:13 38° WNW 13:31:57 10° N
Meteor 2-21 Rocket 4.4 13:24:01 10° N 13:30:15 82° ENE 13:36:25 10° SSE
SL-4 R/B 1.7 13:28:28 10° WSW 13:32:01 71° SSE 13:33:54 27° E
H-2A R/B 4.3 13:29:34 10° N 13:33:03 25° WNW 13:36:26 10° WSW
Cosmos 1745 Rocket 4.5 13:27:19 10° N 13:33:05 37° ENE 13:38:53 10° SE
NOSS 2-1 (E) 3.9 13:31:51 10° WSW 13:35:06 47° NW 13:38:22 13° NE
HJ-1C 4.0 13:34:23 28° ESE 13:35:21 34° ENE 13:38:27 10° N
Cosmos 2227 Rocket 2.6 13:30:34 10° NNW 13:35:57 42° NE 13:39:20 21° ESE
USA 307 3.2 13:32:45 10° W 13:37:00 58° N 13:39:16 26° ENE
ATLAS 5 CENTAUR R/B 2.8 13:33:41 10° WSW 13:37:43 39° NNW 13:42:20 10° NE
Cosmos 292 Rocket 4.2 13:33:45 10° S 13:38:10 38° ESE 13:42:32 10° NE
Nadezhda 2 Rocket 4.5 13:32:00 10° N 13:38:25 77° E 13:44:50 10° SSE
Cosmos 1825 Rocket 3.9 13:35:11 10° NNW 13:39:39 69° W 13:44:03 10° S
Cosmos 1346 Rocket 3.8 13:36:57 10° N 13:40:14 26° ENE 13:40:14 26° ENE
USA 308 3.2 13:37:26 10° W 13:41:41 58° N 13:43:44 28° ENE
Helios 1A Rocket 3.2 13:39:14 10° S 13:43:22 69° WSW 13:47:29 10° NNW
YAOGAN 1 2.5 13:39:10 10° SSE 13:43:29 81° ENE 13:47:50 10° NNW
Okean-O 2.7 13:39:04 10° SSE 13:43:31 81° WSW 13:47:59 10° NNW
PSLV R/B 3.9 13:40:13 10° NNE 13:44:27 87° ESE 13:48:38 10° SSW
Cosmos 1244 Rocket 4.4 13:39:02 10° N 13:45:15 77° E 13:51:28 10° SSE
Aureole 3 3.5 13:42:06 10° SSE 13:44:37 34° SE 13:44:37 34° SE
Aureole 3 Rocket 3.2 13:42:29 10° SSE 13:45:57 45° E 13:50:35 10° NNE
SAR-Lupe-4 4.5 13:42:52 10° N 13:46:22 50° WNW 13:49:50 10° SW
ARGOS 3.4 13:41:53 10° SE 13:47:01 49° ENE 13:52:15 10° N
CZ-2C R/B 4.4 13:44:55 10° NE 13:46:09 15° NE 13:46:09 15° NE
Cosmos 2263 Rocket 3.8 13:46:43 10° N 13:50:25 17° NNE 13:51:49 16° NE
Ariane Rocket 3.8 13:52:09 29° E 13:53:04 31° ENE 13:57:32 10° N
SL-08 ROCKET BODY 4.5 13:47:46 10° N 13:53:44 55° ENE 13:59:44 10° SSE
Geosat 3.9 13:50:48 10° NE 13:55:50 66° ESE 14:00:50 10° SSW
CZ-2C R/B 3.3 13:50:08 10° SSE 13:55:59 88° WSW 14:01:44 10° NNW
CZ-2D R/B 4.2 13:52:24 10° S 13:56:07 48° W 13:59:50 10° NNW
CSL-04 Rocket 3.6 13:50:41 10° SSE 13:56:13 75° ENE 14:01:46 10° NNW
Cosmos 1818 4.1 13:50:58 10° WSW 13:56:18 57° NW 14:01:24 12° NE
NOSS 2-2 (E) 4.4 13:51:21 10° NW 13:56:45 88° NE 14:02:28 18° SE
Cosmos 1076 Rocket 4.5 13:53:28 10° N 13:56:27 28° NE 13:56:27 28° NE
Cosmos 1726 Rocket 3.5 13:55:23 10° S 13:59:43 86° W 14:04:08 10° N
MOS 1 Rocket 3.3 13:55:47 10° NNE 14:00:11 51° E 14:04:48 10° S
FALCON 9 DEB 3.2 13:58:12 10° W 14:01:38 69° N 14:02:08 57° NE
Meteor 2-10 Rocket 4.0 13:56:52 10° SSE 14:01:43 35° E 14:06:25 10° NNE
Cosmos 2058 3.2 13:58:36 10° N 14:02:21 42° ENE 14:02:21 42° ENE
Cosmos 1892 2.7 13:58:45 10° N 14:02:35 56° ENE 14:03:07 50° ESE
NOSS 3-4 (A) 4.5 14:01:42 10° NW 14:07:48 37° NNE 14:10:39 27° ENE
NOSS 3-4 (C) 4.5 14:01:48 10° NW 14:07:53 37° NNE 14:10:45 27° ENE
NOSS 2-2 (D) 4.4 14:07:47 10° NW 14:13:06 87° SW 14:17:25 26° SE
Cosmos 1606 Rocket 4.4 14:09:03 10° SSW 14:13:18 52° WNW 14:17:37 10° N
Timation 2 Rocket 4.3 14:06:52 10° NW 14:13:21 71° WSW 14:20:04 10° SSE
CZ-4 R/B 2.7 14:11:51 10° S 14:15:33 39° W 14:19:14 10° NNW
Meteor 2-15 4.4 14:10:09 10° S 14:16:09 57° E 14:22:10 10° NNE
Cosmos 1331 Rocket 4.0 14:11:10 10° SSW 14:16:20 82° WNW 14:21:32 10° NNE
Cosmos 2297 Rocket 2.1 14:11:16 10° NNW 14:16:59 87° ENE 14:19:58 30° SSE
Cosmos 1300 3.5 14:15:06 10° SSW 14:18:50 51° WNW 14:22:35 10° N
Cosmos 2369 Rocket 4.2 14:14:17 10° W 14:18:52 24° NW 14:23:30 10° NNE
EO 1 Delta rocket 4.3 14:16:07 10° NNE 14:20:47 44° ENE 14:20:47 44° ENE
In-Cosmos 22 Rocket 4.2 14:16:09 10° NNW 14:21:29 77° W 14:26:52 10° S
Lacrosse 5 2.6 14:17:17 10° W 14:22:11 47° NNW 14:23:56 34° NE
S3M 3.9 14:18:04 10° S 14:24:02 60° E 14:30:06 10° NNE
USA 215 3.2 14:24:04 38° ESE 14:26:55 88° SSW 14:33:30 10° WNW
ATLAS 2AS CENTAUR R/B 3.5 14:22:55 10° NW 14:30:11 41° NNE 14:32:28 33° ENE
USA 305 3.0 14:26:03 10° WNW 14:30:21 66° NNE 14:30:23 66° NNE
ERBS 3.8 14:29:49 10° WNW 14:32:28 31° NNW 14:32:28 31° NNW
Cosmos 2058 Rocket 3.5 14:30:31 10° SSW 14:34:57 62° WNW 14:39:27 10° N
SJ-6B 4.3 14:37:17 29° N 14:37:17 29° N 14:39:29 10° N
USA 306 3.0 14:32:11 10° WNW 14:36:14 67° N 14:36:14 67° N
Cosmos 1417 Rocket 4.4 14:31:04 10° S 14:37:19 89° E 14:43:41 10° N
Cosmos 1825 4.1 14:34:22 10° N 14:35:46 21° N 14:35:46 21° N
Cosmos 2219 3.5 14:33:09 10° NW 14:38:51 65° WSW 14:41:48 29° S
Cosmos 1486 Rocket 4.0 14:35:23 10° NNW 14:40:45 81° WSW 14:42:12 50° S
Cosmos 1302 Rocket 3.9 14:37:46 10° SSW 14:43:02 90° ESE 14:45:41 31° NNE
SL-08 RB Rocket 3.6 14:43:13 82° SW 14:43:19 83° WSW 14:47:49 10° NNW
SeaSat 1 3.5 14:40:48 18° S 14:44:06 43° WSW 14:48:49 10° NW
Cosmos 968 Rocket 3.5 14:39:08 10° NNW 14:44:24 79° WSW 14:45:28 57° S
Cosmos 1400 Rocket 3.6 14:40:38 10° SSW 14:44:40 53° WNW 14:48:44 10° N
IRS-1A Rocket 4.1 14:44:06 63° SE 14:44:59 77° ENE 14:50:33 10° NNW
Resurs 01 Rocket 3.8 14:48:55 15° NNE 14:48:55 15° NNE 14:49:51 10° N
Cosmos 1503 Rocket 3.9 14:44:19 10° NNW 14:49:13 72° NNE 14:49:13 72° NNE
Cosmos 2082 3.5 14:45:38 10° NNW 14:51:24 78° ENE 14:51:39 76° E
Meteor 2-1 Rocket 4.2 14:45:55 10° S 14:52:09 66° NE 14:56:57 10° NNE
BREEZE-M R/B 4.0 14:49:54 10° W 14:54:33 77° S 14:55:53 60° ESE
Cosmos 44 3.8 14:51:57 10° SW 14:55:10 47° SW 14:55:10 47° SW
Cosmos 1553 Rocket 4.4 14:50:24 10° SSW 14:56:43 64° WNW 15:03:01 10° N
Cosmos 1354 Rocket 4.1 14:52:30 10° NNW 14:57:07 66° N 14:57:07 66° N
CZ-4C R/B 3.6 14:55:03 10° NW 15:00:59 35° NNE 15:02:05 34° NE
H-2A R/B 3.5 14:56:07 10° SSW 15:01:05 38° W 15:06:10 10° NNW
MOS 1 4.1 15:01:01 80° SSE 15:01:21 90° NE 15:07:05 10° NNW
MetOp-A 4.0 15:01:59 84° NNW 15:01:59 84° NNW 15:07:11 10° NNW
SL-4 R/B 4.0 15:07:55 10° W 15:09:29 24° W 15:09:29 24° W
Cosmos 2227 Rocket 3.2 15:14:44 10° NW 15:20:02 42° WSW 15:21:11 38° SW
ATLAS 5 CENTAUR R/B 3.8 15:20:05 10° NW 15:23:40 21° N 15:23:52 21° N
CZ-2C R/B 3.9 15:24:29 10° N 15:27:38 34° N 15:27:38 34° N
Ariane Rocket 3.9 15:32:21 45° W 15:32:21 45° W 15:36:49 10° NNW
Cosmos 2263 Rocket 3.4 15:30:04 10° NNW 15:33:30 35° N 15:33:30 35° N
NOSS 3-4 (A) 4.1 15:52:39 10° NW 15:58:05 61° NW 15:58:05 61° NW
NOSS 3-4 (C) 4.1 15:52:46 10° NW 15:58:11 60° NW 15:58:11 60° NW
Cosmos 2297 Rocket 4.4 15:56:31 10° WNW 16:00:18 18° W 16:01:49 17° WSW
Lacrosse 5 4.0 16:00:59 10° WNW 16:03:08 24° NW 16:03:08 24° NW
USA 215 4.4 16:11:26 33° WSW 16:11:26 33° WSW 16:16:22 10° WNW
ATLAS 2AS CENTAUR R/B 3.5 16:14:22 10° NW 16:19:54 51° NW 16:19:54 51° NW
CZ-4C R/B 4.0 16:43:36 10° NW 16:47:15 36° NW 16:47:15 36° NW
SL-16 R/B 4.4 21:21:36 20° NNE 21:21:36 20° NNE 21:23:14 10° NNE
USA 234 3.9 21:41:01 10° ENE 21:45:46 52° NE 21:45:46 52° NE
ADEOS II 4.0 22:04:51 10° NNE 22:06:46 23° N 22:06:46 23° N
Resurs 1-4 Rocket 4.4 22:10:45 10° N 22:11:47 15° N 22:11:47 15° N
CZ-2D R/B 4.4 22:12:17 10° N 22:13:09 14° N 22:13:09 14° N
ADEOS Rocket 4.0 22:12:15 10° SE 22:17:16 38° ENE 22:22:23 10° N
Cosmos 1867 4.5 22:24:08 46° NE 22:24:08 46° NE 22:27:56 10° NE
Cosmos 2237 Rocket 4.3 22:41:07 14° NNW 22:41:07 14° NNW 22:43:32 10° N
ARIANE 5 R/B 3.6 22:38:12 10° NNE 22:41:05 35° N 22:41:05 35° N
Tsikada Rocket 3.9 22:48:19 72° S 22:49:00 85° E 22:55:14 10° N
Cosmos 1697 Rocket 4.5 22:44:28 10° NNW 22:49:20 28° NE 22:54:11 10° E
CENTAUR R/B 4.4 22:45:01 11° SSE 22:49:38 26° ESE 22:55:05 10° ENE
Cosmos 1707 4.4 22:54:02 32° NE 22:54:02 32° NE 22:56:35 10° NNE
Cosmos 1943 3.8 22:55:49 45° NNW 22:55:49 45° NNW 23:00:18 10° NNE
Cosmos 1331 Rocket 4.4 22:53:41 27° N 22:56:28 61° ENE 23:01:37 10° SE
IDEFIX/ARIANE 42P 3.1 22:55:58 10° N 22:59:54 48° NNW 22:59:54 48° NNW
SL-16 R/B 3.9 23:03:29 19° NNW 23:03:29 19° NNW 23:06:51 10° NNE
Cosmos 1816 Rocket 4.3 23:04:01 68° W 23:04:08 69° WNW 23:10:20 10° N
Lacrosse 4 Rocket 4.4 23:04:56 10° SE 23:06:30 12° ESE 23:08:05 10° E
Cosmos 2344 3.9 23:05:10 27° SSW 23:09:20 62° SE 23:17:17 10° NE
USA 238 DEB 4.4 23:05:29 23° S 23:09:23 49° ESE 23:15:59 10° NE
Cosmos 1980 Rocket 4.2 23:04:54 10° NNW 23:09:26 24° NE 23:13:56 10° E
USA 238 4.4 23:05:33 23° S 23:09:30 48° ESE 23:16:04 10° NE
Spot 4 Rocket 4.2 23:07:24 10° N 23:11:51 57° NW 23:11:51 57° NW
NOSS 3-2 (A) 3.9 23:12:53 30° S 23:15:37 54° SE 23:22:00 10° NE
Cosmos 2142 Rocket 4.4 23:14:12 10° N 23:20:26 90° WSW 23:26:43 10° S
Cosmos 1110 Rocket 3.8 23:18:19 36° NNW 23:20:29 83° WSW 23:25:39 10° SSE
Cosmos 1953 2.5 23:18:09 10° N 23:22:09 69° ENE 23:26:10 10° SSE
Cosmos 1048 Rocket 4.0 23:21:43 44° SSW 23:23:27 84° ESE 23:28:51 10° NNE
PAYLOAD A 4.0 23:18:49 10° NNE 23:23:49 83° ESE 23:26:44 27° SSW
CZ-4B R/B 2.5 23:20:57 10° SE 23:24:16 45° ENE 23:27:36 10° N
USA 234 3.6 23:23:59 10° ENE 23:30:20 55° N 23:33:06 33° WNW
Geosat 4.0 23:31:18 10° SSE 23:36:13 56° WSW 23:37:19 46° WNW
PSLV R/B 3.4 23:32:39 10° NNE 23:36:57 84° WNW 23:38:19 43° SSW
NOSS 3-3 (A) 4.5 23:34:23 24° NW 23:39:13 64° SW 23:47:25 10° SSE
Cosmos 1908 3.8 23:35:24 10° N 23:39:17 60° ENE 23:43:09 10° SSE
NOSS 3-3 (C) 4.5 23:34:35 24° NW 23:39:18 63° SW 23:47:24 10° SSE
Cosmos 1975 Rocket 3.7 23:40:36 37° NW 23:40:36 37° NW 23:43:43 10° N
BREEZE-M DEB (TANK) 4.0 23:42:03 17° S 23:42:03 17° S 23:42:55 10° SSE
CZ-2C R/B 4.1 23:38:35 10° N 23:40:59 29° NNW 23:40:59 29° NNW
Cosmos 494 Rocket 4.0 23:39:15 20° SSW 23:42:58 83° ESE 23:48:17 10° NNE
ADEOS II 4.0 23:46:04 10° NNW 23:47:41 14° NW 23:47:41 14° NW
Cosmos 44 Rocket 3.4 23:45:51 24° NW 23:49:02 87° NE 23:54:14 10° SE
KORONAS-FOTON 4.5 23:45:28 10° S 23:49:18 56° E 23:53:09 10° NNE
Cosmos 292 Rocket 3.7 23:45:36 15° NNW 23:49:40 68° WSW 23:54:29 10° SSE
GP-B 3.0 23:45:50 13° SSW 23:49:40 60° W 23:54:05 10° N
MSX 4.2 23:46:06 10° N 23:51:26 40° WNW 23:52:57 34° W
Cosmos 2369 4.4 23:45:57 10° NNW 23:51:34 55° NE 23:57:06 10° SE
Cosmos 2279 Rocket 3.9 23:46:34 10° NNW 23:52:42 63° W 23:58:47 10° S
CZ-2C R/B 2.4 23:47:54 10° N 23:52:57 65° WNW 23:56:33 18° SSW
Cosmos 1634 Rocket 4.3 23:47:07 10° NNW 23:53:00 42° W 23:58:51 10° SSW
